星链-37214(STARLINK-37214)

导读

STARLINK-37214(NORAD编号68345)是美国SpaceX公司星链(Starlink)互联网卫星星座中的一颗卫星。这颗卫星于2025年12月在轨道运行时突发异常,轨道高度骤降约4000米,随后与地面控制中心失去联系。 据监测,卫星解体产生了数十块空间碎片,初步分析事故源于卫星内部故障,而非太空碰撞。SpaceX官方称卫星大致保持完整,处于翻滚状态,预计其残骸将在几周内再入地球大气层并完全烧毁。目前SpaceX正联合美国太空军、NASA对碎片进行监测,事故具体原因仍在调查中。

基本信息
目录编号:
68345
目录名称:
STARLINK-37214
国际标识:
2026-059AA
轨道中心:
EARTH
卫星名称:
星链-37214
卫星全名:
星链-37214(STARLINK-37214)
卫星状态:
在轨 (已飞行173 天)
发射日期:
2026-03-22 UTC
国别 :
美国 (US)
星等 :
--
该卫星已列入 空间交会检测服务 Space Conjunction Data Service (SCDS) ,当前飞行风险评估等级: 无高风险
轨道信息
数据来源 国际轨道数据 AOE轨道数据
星历时间 2026-09-11T13:51:46+0800
11小时前
查看轨道信息
2026-09-06T00:00:00+0800
6天前
查看轨道信息
半长轴 6840.81km 6840.889km
偏心率 0.0001244 0.0001167
轨道倾角 53.159° 53.159°
近地点辐角 97.687° 88.722°
升交点赤经 198.642° 224.714°
平近点角 262.427° 44.527°
近地点 461.822km 461.953km
远地点 463.524km 463.551km
周期 93.847分钟 93.849分钟
每日圈数 15.344102 15.343836
详细信息
固有亮度:
5
最大亮度:
2.5
卫星平台:
Starlink V1.0
覆盖范围:
全球
运营商:
太空探索技术公司
运营商所在国:
美国
制造商(研发单位):
太空探索技术公司
制造商所在国:
美国
使用方式:
暂无
卫星简介
Starlink 计划是 SpaceX 推出的全球卫星互联网项目,通过发射低轨道卫星,为全球尤其是偏远地区提供高速、低延迟的互联网服务。自 2019 年起,Starlink 已部署数千颗卫星,旨在缩小全球数字鸿沟,推动互联网普及。该项目还为军事、航空等行业提供通信支持,带来广泛经济效益。
2D轨道图
3D轨道图
轨道高度分析图
轨道倾角分析图
轨道综合分析图
查看轨道综合分析图
交会数据列表
事件ID 空间交会对象 最接近时刻(TCA) 交会距离 交会风险概率(CRP) 交会风险指数(CRI) 操作
CDM_260911-230105-317106-834523
2026-09-11T
23:01:29+0000
2.764 km
极远距离
1.332871E-6 低风险 0.37
CDM_260912-215604-943806-834521
2026-09-12T
21:56:49+0000
2.740 km
极远距离
1.18722E-6 低风险 0.36
CDM_260910-112606-834506-955921
2026-09-10T
11:26:20+0000
2.827 km
极远距离
1.179208E-6 低风险 0.36
CDM_260912-220405-111106-834521
2026-09-12T
22:04:23+0000
2.917 km
极远距离
6.088826E-7 极低风险 0.31
与全量物体交会距离演化趋势
与全量物体交会风险概率演化趋势